Kerkyra, Greece

11:33 PM EET on December 12, 2017 (GMT +0200)
Ioannis Kapodistrias

Weather History for LGKR - October, 2017

Change the Weather History Date:

Friday, October 13, 2017

  Actual Average Record
Temperature  
Mean Temperature 66 °F -  
Max Temperature 79 °F 71 °F 84 °F (2000)
Min Temperature 54 °F 53 °F 50 °F (2016)
Cooling Degree Days 2    
Growing Degree Days 16 (Base 50)    
Moisture  
Dew Point 56 °F    
Average Humidity 73    
Maximum Humidity 94    
Minimum Humidity 30    
Precipitation  
Precipitation 0.00 in 0.21 in - ()
Sea Level Pressure  
Sea Level Pressure 30.17 in    
Wind  
Wind Speed 2 mph ()    
Max Wind Speed 10 mph    
Max Gust Speed -    
Visibility 7.1 miles    
Events      
Averages and records for this station are not official NWS values.
T = Trace of Precipitation, MM = Missing Value Source: Averaged Metar Reports

Daily Weather History Graph

Daily Weather History Graph

Search for Another Location

Airport or City:

Trip Planner

Search our weather history database for the weather conditions in past years. The results will help you decide how hot, cold, wet, or windy it might be!

Date:

Astronomy

Oct. 13, 2017 Rise Set
Actual Time 7:48 AM EEST 7:04 PM EEST
Civil Twilight 7:21 AM EEST 7:31 PM EEST
Nautical Twilight 6:50 AM EEST 8:02 PM EEST
Astronomical Twilight 6:18 AM EEST 8:33 PM EEST
Moon 12:54 AM EEST (10/13) 3:32 PM EEST (10/13)
Length of Visible Light 12h 09m
Length of Day
11h 15m
Last Quarter, 41% of the Moon is Illuminated
Oct 13
Last Quarter
Oct 19
New
Oct 28
First Quarter
Nov 4
Full
Nov 10
Last Quarter

Hourly Weather History & Observations

Time (EEST) Temp. Heat Index Dew Point Humidity Pressure Visibility Wind Dir Wind Speed Gust Speed Precip Events Conditions
12:00 AM 61 °F - 56 °F 80% 30.22 in 6 mi Calm Calm - -  
12:20 AM 60.8 °F - 57.2 °F 88% 30.21 in - Calm Calm - N/A   Clear
12:50 AM 60.8 °F - 55.4 °F 82% 30.21 in - West 2.3 mph - N/A   Clear
1:20 AM 60.8 °F - 55.4 °F 82% 30.21 in - West 2.3 mph - N/A   Clear
1:50 AM 59.0 °F - 55.4 °F 88% 30.18 in - Calm Calm - N/A   Clear
2:20 AM 59.0 °F - 55.4 °F 88% 30.18 in - Calm Calm - N/A   Clear
2:50 AM 57.2 °F - 53.6 °F 88% 30.18 in - Calm Calm - N/A   Clear
3:00 AM 57 °F - 54 °F 86% 30.20 in 6 mi Calm Calm - -  
3:20 AM 57.2 °F - 53.6 °F 88% 30.18 in - Calm Calm - N/A   Clear
3:50 AM 57.2 °F - 53.6 °F 88% 30.18 in - Calm Calm - N/A   Clear
4:20 AM 57.2 °F - 53.6 °F 88% 30.18 in - Calm Calm - N/A   Clear
4:50 AM 55.4 °F - 53.6 °F 94% 30.18 in - WNW 3.5 mph - N/A   Clear
5:20 AM 55.4 °F - 53.6 °F 94% 30.18 in - WNW 2.3 mph - N/A   Clear
5:50 AM 55.4 °F - 53.6 °F 94% 30.18 in - Calm Calm - N/A   Clear
6:00 AM 55 °F - 54 °F 94% 30.19 in 6 mi Calm Calm - -  
6:20 AM 55.4 °F - 53.6 °F 94% 30.18 in - Calm Calm - N/A   Clear
6:50 AM 55.4 °F - 53.6 °F 94% 30.18 in - West 2.3 mph - N/A   Clear
7:20 AM 55.4 °F - 53.6 °F 94% 30.18 in 6.2 mi WNW 2.3 mph - N/A   Scattered Clouds
7:50 AM 55.4 °F - 53.6 °F 94% 30.18 in 6.2 mi WSW 2.3 mph - N/A   Partly Cloudy
8:20 AM 55.4 °F - 53.6 °F 94% 30.18 in 6.2 mi WNW 3.5 mph - N/A   Partly Cloudy
8:50 AM 55.4 °F - 53.6 °F 94% 30.18 in 6.2 mi West 3.5 mph - N/A   Partly Cloudy
9:00 AM 55 °F - 53 °F 89% 30.20 in 6 mi West 3.5 mph - -   Scattered Clouds
9:20 AM 57.2 °F - 53.6 °F 88% 30.18 in - SW 2.3 mph - N/A   Clear
9:50 AM 60.8 °F - 57.2 °F 88% 30.18 in - WNW 2.3 mph - N/A   Clear
10:50 AM 68.0 °F - 59.0 °F 73% 30.18 in - NW 2.3 mph - N/A   Clear
11:20 AM 71.6 °F - 57.2 °F 60% 30.18 in - SSW 2.3 mph - N/A   Clear
11:50 AM 71.6 °F - 53.6 °F 53% 30.18 in - Variable 3.5 mph - N/A   Clear
12:00 PM 71 °F - 54 °F 45% 30.21 in 6 mi 3.5 mph - -  
12:20 PM 73.4 °F - 55.4 °F 53% 30.18 in - South 4.6 mph - N/A   Clear
12:50 PM 73.4 °F - 55.4 °F 53% 30.18 in - South 3.5 mph - N/A   Clear
1:20 PM 75.2 °F - 57.2 °F 53% 30.18 in - SW 2.3 mph - N/A   Clear
2:20 PM 78.8 °F - 55.4 °F 44% 30.18 in - NW 2.3 mph - N/A   Clear
2:50 PM 80.6 °F 80.3 °F 53.6 °F 39% 30.15 in - SW 4.6 mph - N/A   Clear
3:00 PM 80 °F - 54 °F 30% 30.17 in 12 mi SW 4.6 mph - -  
3:20 PM 80.6 °F 80.3 °F 53.6 °F 39% 30.15 in - West 3.5 mph - N/A   Clear
4:20 PM 80.6 °F - 51.8 °F 37% 30.15 in - SW 6.9 mph - N/A   Clear
4:50 PM 80.6 °F 81.1 °F 59.0 °F 48% 30.12 in - WSW 5.8 mph - N/A   Clear
5:20 PM 80.6 °F 81.1 °F 59.0 °F 48% 30.12 in - NE 5.8 mph - N/A   Clear
5:50 PM 78.8 °F - 59.0 °F 51% 30.12 in - NNW 8.1 mph - N/A   Clear
6:00 PM 78 °F - 59 °F 42% 30.14 in 12 mi NNW 8.1 mph - -  
6:20 PM 77.0 °F - 59.0 °F 54% 30.12 in - WNW 10.4 mph - N/A   Clear
6:50 PM 73.4 °F - 59.0 °F 61% 30.12 in - WNW 8.1 mph - N/A   Clear
7:20 PM 69.8 °F - 59.0 °F 68% 30.12 in - WNW 6.9 mph - N/A   Clear
7:50 PM 69.8 °F - 60.8 °F 73% 30.12 in - WNW 6.9 mph - N/A   Clear
8:20 PM 68.0 °F - 60.8 °F 78% 30.12 in - Calm Calm - N/A   Clear
9:00 PM 67 °F - 61 °F 75% 30.14 in 6 mi WSW 2.3 mph - -  
9:20 PM 66.2 °F - 60.8 °F 83% 30.12 in - Calm Calm - N/A   Clear
9:50 PM 64.4 °F - 59.0 °F 83% 30.12 in - Calm Calm - N/A   Clear
10:20 PM 64.4 °F - 55.4 °F 73% 30.12 in - West 2.3 mph - N/A   Clear
10:50 PM 64.4 °F - 57.2 °F 77% 30.15 in - West 2.3 mph - N/A   Clear
11:20 PM 64.4 °F - 57.2 °F 77% 30.15 in - SW 2.3 mph - N/A   Clear
11:50 PM 60.8 °F - 59.0 °F 94% 30.15 in - WNW 3.5 mph - N/A   Clear